This demonstration page uses our WeatherBlox Daily Observations layout. Learn more.

Hourly Observations for April 30, 2019

Temp ( °F °C ) Dew Point ( °F °C ) Humidity (%) Winds ( mph kmh ) Pressure ( in mb ) Visibility ( mi km ) Precip ( " mm )
12:54 am 00:54 Cloudy 46 7.8 40 4.4 79 79 N 10 17 30.16 1022 10 16.0934 0 0.0254
1:54 am 01:54 Cloudy 45 7.2 37 2.8 74 74 N 12 19 30.16 1021 10 16.0934 0 0.0254
2:54 am 02:54 Cloudy 45 7.2 37 2.8 74 74 N 12 19 30.12 1020 10 16.0934 0 0
3:54 am 03:54 Cloudy 45 7.2 37 2.8 74 74 N 8 13 30.13 1020 10 16.0934 0 0
4:54 am 04:54 Cloudy 45 7.2 38 3.3 77 77 N 9 15 30.13 1020 10 16.0934 0 0
5:54 am 05:54 Cloudy 45 7.2 38 3.3 77 77 N 9 15 30.12 1020 10 16.0934 0 0.0254
6:54 am 06:54 Cloudy 45 7.2 39 3.9 80 80 NNE 8 13 30.11 1020 10 16.0934 0 0.0254
7:54 am 07:54 Cloudy 45 7.2 39 3.9 80 80 N 10 17 30.1 1019 10 16.0934 0 0.0254
8:54 am 08:54 Cloudy 46 7.8 39 3.9 77 77 N 14 22 30.1 1019 10 16.0934 0 0
9:54 am 09:54 Cloudy 48 8.9 41 5 77 77 NE 13 20 30.09 1019 10 16.0934 0 0
10:54 am 10:54 Cloudy 50 10 42 5.6 74 74 NE 13 20 30.04 1017 10 16.0934 0 0
11:54 am 11:54 Cloudy 50 10 42 5.6 74 74 NE 10 17 30.03 1017 10 16.0934 0 0
12:23 pm 12:23 Cloudy 50 10 42 5.6 74 74 NE 12 19 30.04 1017 10 16.0934 0 0
12:54 pm 12:54 Cloudy 51 10.6 43 6.1 74 74 NNE 12 19 30.01 1016 10 16.0934 0 0
1:51 pm 13:51 Cloudy with Light Rain 48 9 46 8 94 94 NNE 8 13 30.03 1017 2 3.21868 0.01 0.254
1:54 pm 13:54 Cloudy with Light Rain 49 9.4 46 7.8 90 90 NNE 8 13 30.02 1017 2 3.21868 0.01 0.254
1:56 pm 13:56 Cloudy with Light Rain 49 9.4 46 7.8 90 90 NNE 8 13 30.02 1017 2 3.21868 0 0.0254
2:09 pm 14:09 Cloudy with Light Rain 49 9.4 47 8.3 93 93 NNE 10 17 30.01 1016 1.5 2.41401 0.01 0.254
2:16 pm 14:16 Cloudy with Light Rain 49 9.4 46 7.8 90 90 NNE 9 15 30.01 1016 1.5 2.41401 0.01 0.254
2:54 pm 14:54 Cloudy with Mist and Fog 50 10 47 8.3 89 89 NNE 13 20 29.98 1015 1.5 2.41401 0.01 0.254
3:01 pm 15:01 Cloudy with Mist and Fog 49 9.4 46 7.8 90 90 NNE 17 28 29.97 1015 4 6.43736 0 0
3:54 pm 15:54 Cloudy 50 10 46 7.8 86 86 NNE 13 20 29.94 1014 9 14.48406 0 0.0254
4:30 pm 16:30 Cloudy 50 10 47 8.3 89 89 NNE 14 22 29.95 1014 9 14.48406 0 0
4:54 pm 16:54 Cloudy with Light Rain 50 10 46 7.8 86 86 NE 12 19 29.94 1014 9 14.48406 0 0.0254
5:54 pm 17:54 Cloudy with Light Rain 49 9.4 47 8.3 93 93 NE 12 19 29.92 1013 5 8.0467 0.03 0.762
6:54 pm 18:54 Cloudy 50 10 48 8.9 93 93 NNE 12 19 29.91 1013 8 12.87472 0 0.0254
7:54 pm 19:54 Cloudy with Mist and Fog 50 10 47 8.3 89 89 NNE 13 20 29.85 1011 4 6.43736 0 0
8:54 pm 20:54 Cloudy 50 10 48 8.9 93 93 N 10 17 29.9 1013 8 12.87472 0 0
9:54 pm 21:54 Cloudy 50 10 48 8.9 93 93 N 9 15 29.89 1012 10 16.0934 0 0
10:54 pm 22:54 Cloudy with Light Rain 50 10 48 8.9 93 93 N 8 13 29.92 1013 4 6.43736 0.02 0.508
11:54 pm 23:54 Cloudy with Light Rain 49 9.4 48 8.9 97 97 N 12 19 29.92 1013 3 4.82802 0.02 0.508

Powered by AerisWeather